Sussex, NJ

6:59 AM EST on November 13, 2019 (GMT -0500)
Sussex

Weather History for KFWN - September, 2019

Change the Weather History Date:

Friday, September 6, 2019

  Actual Average Record
Temperature  
Mean Temperature 60 °F -  
Max Temperature 66 °F 78 °F 91 °F (2018)
Min Temperature 53 °F 52 °F 38 °F (1984)
Degree Days  
Heating Degree Days 6    
Growing Degree Days 10 (Base 50)    
Moisture  
Dew Point 54 °F    
Average Humidity 83    
Maximum Humidity 93    
Minimum Humidity 57    
Precipitation  
Precipitation 0.08 in - - ()
Sea Level Pressure  
Sea Level Pressure 29.92 in    
Wind  
Wind Speed 4 mph ()    
Max Wind Speed 13 mph    
Max Gust Speed 20 mph    
Visibility 8.4 miles    
Events Rain    
Averages and records for this station are not official NWS values.
T = Trace of Precipitation, MM = Missing Value Source: Averaged Metar Reports

Daily Weather History Graph

Daily Weather History Graph

Search for Another Location

Airport or City:

Astronomy

Sep. 06, 2019 Rise Set
Actual Time 6:29 AM EDT 7:23 PM EDT
Civil Twilight 6:01 AM EDT 7:51 PM EDT
Nautical Twilight 5:28 AM EDT 8:24 PM EDT
Astronomical Twilight 4:53 AM EDT 8:59 PM EDT
Moon 2:40 PM EDT (9/6) No Moon Set
Length of Visible Light 13h 49m
Length of Day
12h 53m
First Quarter, 55% of the Moon is Illuminated
Sep 6
First Quarter
Sep 14
Full
Sep 21
Last Quarter
Sep 28
New
Oct 5
First Quarter

Hourly Weather History & Observations

Time (EDT) Temp. Dew Point Humidity Pressure Visibility Wind Dir Wind Speed Gust Speed Precip Events Conditions
12:03 AM 57.0 °F 55.0 °F 93% 30.05 in 1.8 mi Calm Calm - N/A   Clear
12:15 AM 57.0 °F 55.0 °F 93% 30.05 in 3.0 mi Calm Calm - N/A   Clear
12:53 AM 55.9 °F 54.0 °F 93% 30.04 in 9.0 mi Calm Calm - N/A   Clear
1:53 AM 55.9 °F 54.0 °F 93% 30.02 in 10.0 mi Calm Calm - N/A   Clear
2:53 AM 55.9 °F 54.0 °F 93% 30.02 in 10.0 mi Calm Calm - N/A   Clear
3:53 AM 54.0 °F 52.0 °F 93% 30.01 in 10.0 mi Calm Calm - N/A   Clear
4:53 AM 53.1 °F 51.1 °F 93% 30.00 in 4.0 mi Calm Calm - N/A   Clear
5:53 AM 53.1 °F 51.1 °F 93% 30.00 in 10.0 mi Calm Calm - N/A   Clear
6:53 AM 54.0 °F 51.1 °F 90% 29.99 in 10.0 mi NNE 5.8 mph - N/A   Clear
7:39 AM 57.0 °F 54.0 °F 89% 29.99 in 10.0 mi NE 6.9 mph - N/A   Scattered Clouds
7:53 AM 57.0 °F 54.0 °F 89% 30.00 in 10.0 mi NNE 8.1 mph - N/A   Scattered Clouds
8:19 AM 57.0 °F 55.0 °F 93% 29.99 in 10.0 mi NE 9.2 mph - N/A   Mostly Cloudy
8:33 AM 57.0 °F 54.0 °F 89% 29.99 in 10.0 mi NE 8.1 mph - N/A   Scattered Clouds
8:53 AM 57.9 °F 54.0 °F 87% 29.99 in 10.0 mi NNE 8.1 mph - N/A   Partly Cloudy
9:53 AM 60.1 °F 55.0 °F 83% 29.98 in 10.0 mi NE 8.1 mph - N/A   Clear
10:53 AM 62.1 °F 55.0 °F 78% 29.96 in 10.0 mi NNE 10.4 mph - N/A   Clear
11:53 AM 63.0 °F 55.0 °F 75% 29.94 in 10.0 mi NE 10.4 mph - N/A   Clear
12:53 PM 66.0 °F 54.0 °F 65% 29.92 in 10.0 mi NE 10.4 mph - N/A   Clear
1:53 PM 66.9 °F 54.0 °F 63% 29.90 in 10.0 mi ENE 6.9 mph - N/A   Partly Cloudy
2:53 PM 66.0 °F 51.1 °F 59% 29.84 in 10.0 mi NE 12.7 mph 19.6 mph N/A   Partly Cloudy
3:53 PM 66.9 °F 51.1 °F 57% 29.85 in 10.0 mi NE 11.5 mph - N/A   Mostly Cloudy
4:53 PM 64.9 °F 51.1 °F 61% 29.84 in 10.0 mi NNE 10.4 mph - 0.00 in Rain Light Rain
5:53 PM 64.9 °F 51.1 °F 61% 29.85 in 10.0 mi NE 6.9 mph - 0.00 in   Overcast
6:53 PM 61.0 °F 54.0 °F 78% 29.83 in 4.0 mi NE 3.5 mph - 0.01 in Rain Light Rain
7:03 PM 61.0 °F 55.0 °F 81% 29.83 in 2.5 mi Variable 3.5 mph - 0.02 in Rain Rain
7:10 PM 61.0 °F 55.0 °F 81% 29.83 in 6.0 mi East 4.6 mph - 0.03 in Rain Light Rain
7:53 PM 59.0 °F 55.0 °F 87% 29.83 in 8.0 mi NE 8.1 mph - 0.05 in Rain Light Rain
8:53 PM 59.0 °F 55.0 °F 87% 29.84 in 10.0 mi NNE 5.8 mph - 0.00 in   Overcast
9:16 PM 59.0 °F 55.0 °F 87% 29.85 in 10.0 mi North 5.8 mph - N/A   Overcast
9:40 PM 57.9 °F 54.0 °F 87% 29.84 in 6.0 mi NNE 5.8 mph - 0.01 in Rain Light Rain
9:53 PM 57.9 °F 54.0 °F 87% 29.85 in 7.0 mi NNE 10.4 mph - 0.01 in Rain Light Rain
10:53 PM 57.9 °F 54.0 °F 87% 29.83 in 10.0 mi NNE 9.2 mph - 0.01 in   Overcast
11:39 PM 57.0 °F 54.0 °F 89% 29.83 in 7.0 mi NNE 9.2 mph - 0.00 in Rain Light Rain
11:53 PM 57.0 °F 54.0 °F 89% 29.83 in 7.0 mi NNE 5.8 mph - 0.00 in   Overcast